Wetterdaten: Freitag, 05.12.2014
Datum Zeit Temp. A. Feuchte A. Luftdruck Regen Wind Richtung Richtung Sonnenschein ET UV Solar Taupunkt Windchill Windben Empfang
05.12.2014 00:00 4,0 C 82 % 1015,1 hPa 0,0 l/m 0,0 km/h (0 Bft) W-SW 252 0 min 0,000 mm 0,0 UV-I 0 W/m 1,2 C 4,0 C 0,0 km/h (0 Bft) 0,00 %
05.12.2014 00:15 4,1 C 82 % 1015,3 hPa 0,0 l/m 0,0 km/h (0 Bft) W-SW 255 0 min 0,000 mm 0,0 UV-I 0 W/m 1,3 C 4,1 C 0,0 km/h (0 Bft) 0,00 %
05.12.2014 00:30 4,1 C 82 % 1015,2 hPa 0,0 l/m 0,0 km/h (0 Bft) SW 226 0 min 0,000 mm 0,0 UV-I 0 W/m 1,3 C 4,1 C 0,0 km/h (0 Bft) 0,00 %
05.12.2014 00:45 3,9 C 82 % 1015,2 hPa 0,0 l/m 0,0 km/h (0 Bft) N 351 0 min 0,000 mm 0,0 UV-I 0 W/m 1,1 C 3,9 C 0,0 km/h (0 Bft) 0,00 %
05.12.2014 01:00 3,7 C 82 % 1015,4 hPa 0,0 l/m 0,4 km/h (0 Bft) W-NW 294 0 min 0,000 mm 0,0 UV-I 0 W/m 0,9 C 3,7 C 4,0 km/h (1 Bft) 0,00 %
05.12.2014 01:15 3,7 C 82 % 1015,6 hPa 0,0 l/m 0,0 km/h (0 Bft) W-SW 256 0 min 0,000 mm 0,0 UV-I 0 W/m 0,9 C 3,7 C 0,0 km/h (0 Bft) 0,00 %
05.12.2014 01:30 3,6 C 82 % 1015,5 hPa 0,0 l/m 0,0 km/h (0 Bft) W-SW 240 0 min 0,000 mm 0,0 UV-I 0 W/m 0,8 C 3,6 C 0,0 km/h (0 Bft) 0,00 %
05.12.2014 01:45 3,4 C 82 % 1015,6 hPa 0,0 l/m 0,0 km/h (0 Bft) W-SW 250 0 min 0,000 mm 0,0 UV-I 0 W/m 0,6 C 3,4 C 0,0 km/h (0 Bft) 0,00 %
05.12.2014 02:00 3,3 C 82 % 1015,6 hPa 0,0 l/m 0,0 km/h (0 Bft) W-SW 250 0 min 0,000 mm 0,0 UV-I 0 W/m 0,5 C 3,3 C 0,0 km/h (0 Bft) 0,00 %
05.12.2014 02:15 3,2 C 83 % 1015,7 hPa 0,0 l/m 0,0 km/h (0 Bft) W-SW 250 0 min 0,000 mm 0,0 UV-I 0 W/m 0,6 C 3,2 C 0,0 km/h (0 Bft) 0,00 %
05.12.2014 02:30 3,2 C 83 % 1015,7 hPa 0,0 l/m 0,0 km/h (0 Bft) S-SW 202 0 min 0,000 mm 0,0 UV-I 0 W/m 0,6 C 3,2 C 0,0 km/h (0 Bft) 0,00 %
05.12.2014 02:45 3,2 C 83 % 1016,0 hPa 0,0 l/m 0,0 km/h (0 Bft) S-SW 202 0 min 0,000 mm 0,0 UV-I 0 W/m 0,6 C 3,2 C 0,0 km/h (0 Bft) 0,00 %
05.12.2014 03:00 3,2 C 83 % 1016,0 hPa 0,0 l/m 0,0 km/h (0 Bft) W-SW 250 0 min 0,000 mm 0,0 UV-I 0 W/m 0,6 C 3,2 C 0,0 km/h (0 Bft) 0,00 %
05.12.2014 03:15 3,3 C 83 % 1016,0 hPa 0,0 l/m 0,0 km/h (0 Bft) S 180 0 min 0,000 mm 0,0 UV-I 0 W/m 0,7 C 3,3 C 0,0 km/h (0 Bft) 0,00 %
05.12.2014 03:30 3,3 C 83 % 1016,1 hPa 0,0 l/m 0,0 km/h (0 Bft) S-SW 199 0 min 0,000 mm 0,0 UV-I 0 W/m 0,7 C 3,3 C 0,0 km/h (0 Bft) 0,00 %
05.12.2014 03:45 3,4 C 83 % 1016,0 hPa 0,0 l/m 0,0 km/h (0 Bft) SW 216 0 min 0,000 mm 0,0 UV-I 0 W/m 0,8 C 3,4 C 0,0 km/h (0 Bft) 0,00 %
05.12.2014 04:00 3,4 C 82 % 1016,0 hPa 0,0 l/m 0,0 km/h (0 Bft) S-SW 207 0 min 0,000 mm 0,0 UV-I 0 W/m 0,6 C 3,4 C 0,0 km/h (0 Bft) 0,00 %
05.12.2014 04:15 3,5 C 82 % 1016,0 hPa 0,0 l/m 0,0 km/h (0 Bft) S-SW 211 0 min 0,000 mm 0,0 UV-I 0 W/m 0,7 C 3,5 C 0,0 km/h (0 Bft) 0,00 %
05.12.2014 04:30 3,6 C 82 % 1016,0 hPa 0,0 l/m 0,0 km/h (0 Bft) W-SW 256 0 min 0,000 mm 0,0 UV-I 0 W/m 0,8 C 3,6 C 0,0 km/h (0 Bft) 0,00 %
05.12.2014 04:45 3,7 C 81 % 1016,1 hPa 0,0 l/m 0,0 km/h (0 Bft) S 172 0 min 0,000 mm 0,0 UV-I 0 W/m 0,7 C 3,7 C 0,0 km/h (0 Bft) 0,00 %
05.12.2014 05:00 3,7 C 82 % 1016,4 hPa 0,0 l/m 0,0 km/h (0 Bft) S 172 0 min 0,000 mm 0,0 UV-I 0 W/m 0,9 C 3,7 C 0,0 km/h (0 Bft) 0,00 %
05.12.2014 05:15 3,6 C 82 % 1016,1 hPa 0,0 l/m 0,0 km/h (0 Bft) S 172 0 min 0,000 mm 0,0 UV-I 0 W/m 0,8 C 3,6 C 0,0 km/h (0 Bft) 0,00 %
05.12.2014 05:30 3,6 C 82 % 1016,3 hPa 0,0 l/m 0,0 km/h (0 Bft) S 172 0 min 0,000 mm 0,0 UV-I 0 W/m 0,8 C 3,6 C 0,0 km/h (0 Bft) 0,00 %
05.12.2014 05:45 3,6 C 82 % 1016,3 hPa 0,0 l/m 0,0 km/h (0 Bft) O-SO 121 0 min 0,000 mm 0,0 UV-I 0 W/m 0,8 C 3,6 C 0,0 km/h (0 Bft) 0,00 %
05.12.2014 06:00 3,6 C 82 % 1016,6 hPa 0,0 l/m 0,0 km/h (0 Bft) O 89 0 min 0,000 mm 0,0 UV-I 0 W/m 0,8 C 3,6 C 0,0 km/h (0 Bft) 0,00 %
05.12.2014 06:15 3,6 C 82 % 1016,6 hPa 0,0 l/m 1,8 km/h (1 Bft) O 90 0 min 0,000 mm 0,0 UV-I 0 W/m 0,8 C 3,6 C 4,0 km/h (1 Bft) 0,00 %
05.12.2014 06:30 3,5 C 82 % 1016,7 hPa 0,0 l/m 2,9 km/h (1 Bft) O-SO 112 0 min 0,000 mm 0,0 UV-I 0 W/m 0,7 C 3,5 C 4,0 km/h (1 Bft) 0,00 %
05.12.2014 06:45 3,4 C 83 % 1016,9 hPa 0,0 l/m 0,4 km/h (0 Bft) O-NO 59 0 min 0,000 mm 0,0 UV-I 0 W/m 0,8 C 3,4 C 4,0 km/h (1 Bft) 0,00 %
05.12.2014 07:00 3,4 C 84 % 1017,0 hPa 0,0 l/m 0,0 km/h (0 Bft) S 185 0 min 0,000 mm 0,0 UV-I 0 W/m 1,0 C 3,4 C 0,0 km/h (0 Bft) 0,00 %
05.12.2014 07:15 3,3 C 84 % 1017,2 hPa 0,0 l/m 0,0 km/h (0 Bft) S 173 0 min 0,000 mm 0,0 UV-I 0 W/m 0,9 C 3,3 C 0,0 km/h (0 Bft) 0,00 %
05.12.2014 07:30 3,3 C 84 % 1017,2 hPa 0,0 l/m 0,0 km/h (0 Bft) S-SW 197 0 min 0,000 mm 0,0 UV-I 0 W/m 0,9 C 3,3 C 0,0 km/h (0 Bft) 0,00 %
05.12.2014 07:45 3,3 C 84 % 1017,3 hPa 0,0 l/m 1,8 km/h (1 Bft) SO 124 0 min 0,000 mm 0,0 UV-I 0 W/m 0,9 C 3,3 C 4,0 km/h (1 Bft) 0,00 %
05.12.2014 08:00 3,3 C 84 % 1017,3 hPa 0,0 l/m 0,0 km/h (0 Bft) SO 134 0 min 0,000 mm 0,0 UV-I 0 W/m 0,9 C 3,3 C 0,0 km/h (0 Bft) 0,00 %
05.12.2014 08:15 3,4 C 84 % 1017,5 hPa 0,0 l/m 0,0 km/h (0 Bft) SW 219 0 min 0,000 mm 0,0 UV-I 0 W/m 1,0 C 3,4 C 0,0 km/h (0 Bft) 0,00 %
05.12.2014 08:30 3,3 C 84 % 1017,4 hPa 0,0 l/m 0,4 km/h (0 Bft) O-SO 111 0 min 0,000 mm 0,0 UV-I 0 W/m 0,9 C 3,3 C 4,0 km/h (1 Bft) 0,00 %
05.12.2014 08:45 3,4 C 84 % 1017,6 hPa 0,0 l/m 0,0 km/h (0 Bft) SW 221 0 min 0,000 mm 0,0 UV-I 0 W/m 1,0 C 3,4 C 0,0 km/h (0 Bft) 0,00 %
05.12.2014 09:00 3,5 C 83 % 1017,6 hPa 0,0 l/m 0,0 km/h (0 Bft) SO 133 0 min 0,000 mm 0,0 UV-I 24 W/m 0,9 C 3,5 C 0,0 km/h (0 Bft) 0,00 %
05.12.2014 09:15 3,5 C 83 % 1017,8 hPa 0,0 l/m 0,0 km/h (0 Bft) O-SO 117 0 min 0,000 mm 0,0 UV-I 40 W/m 0,9 C 3,5 C 0,0 km/h (0 Bft) 0,00 %
05.12.2014 09:30 3,5 C 83 % 1017,6 hPa 0,0 l/m 1,8 km/h (1 Bft) O 99 0 min 0,000 mm 0,0 UV-I 54 W/m 0,9 C 3,5 C 4,0 km/h (1 Bft) 0,00 %
05.12.2014 09:45 3,5 C 83 % 1017,5 hPa 0,0 l/m 2,2 km/h (1 Bft) S 172 0 min 0,000 mm 0,0 UV-I 64 W/m 0,9 C 3,5 C 4,0 km/h (1 Bft) 0,00 %
05.12.2014 10:00 3,6 C 83 % 1017,7 hPa 0,0 l/m 0,7 km/h (0 Bft) O 90 0 min 0,000 mm 1,0 UV-I 116 W/m 1,0 C 3,6 C 4,0 km/h (1 Bft) 0,00 %
05.12.2014 10:15 3,6 C 83 % 1017,7 hPa 0,0 l/m 1,8 km/h (1 Bft) O 97 0 min 0,000 mm 1,0 UV-I 153 W/m 1,0 C 3,6 C 4,0 km/h (1 Bft) 0,00 %
05.12.2014 10:30 3,6 C 83 % 1017,7 hPa 0,0 l/m 0,0 km/h (0 Bft) O-SO 120 0 min 0,000 mm 1,0 UV-I 125 W/m 1,0 C 3,6 C 0,0 km/h (0 Bft) 0,00 %
05.12.2014 10:45 3,7 C 83 % 1017,6 hPa 0,0 l/m 1,8 km/h (1 Bft) O-SO 105 0 min 0,000 mm 1,0 UV-I 132 W/m 1,1 C 3,7 C 4,0 km/h (1 Bft) 0,00 %
05.12.2014 11:00 3,8 C 82 % 1017,6 hPa 0,0 l/m 0,0 km/h (0 Bft) O 81 0 min 0,000 mm 1,0 UV-I 149 W/m 1,0 C 3,8 C 0,0 km/h (0 Bft) 0,00 %
05.12.2014 11:15 3,9 C 82 % 1017,5 hPa 0,0 l/m 1,8 km/h (1 Bft) O 90 0 min 0,000 mm 1,0 UV-I 130 W/m 1,1 C 3,9 C 4,0 km/h (1 Bft) 0,00 %
05.12.2014 11:30 4,0 C 81 % 1017,5 hPa 0,0 l/m 0,0 km/h (0 Bft) SO 139 15 min 0,000 mm 1,0 UV-I 198 W/m 1,0 C 4,0 C 0,0 km/h (0 Bft) 0,00 %
05.12.2014 11:45 4,2 C 79 % 1017,4 hPa 0,0 l/m 0,0 km/h (0 Bft) S 173 0 min 0,000 mm 0,0 UV-I 93 W/m 0,9 C 4,2 C 0,0 km/h (0 Bft) 0,00 %
05.12.2014 12:00 4,0 C 79 % 1017,4 hPa 0,0 l/m 3,2 km/h (1 Bft) O-NO 66 15 min 0,000 mm 1,0 UV-I 210 W/m 0,7 C 4,0 C 4,0 km/h (1 Bft) 0,00 %
05.12.2014 12:15 3,8 C 78 % 1017,1 hPa 0,0 l/m 0,4 km/h (0 Bft) O-SO 111 15 min 0,000 mm 1,0 UV-I 222 W/m 0,3 C 3,8 C 4,0 km/h (1 Bft) 0,00 %
05.12.2014 12:30 3,8 C 78 % 1017,0 hPa 0,0 l/m 0,4 km/h (0 Bft) W-SW 251 15 min 0,000 mm 1,0 UV-I 234 W/m 0,3 C 3,8 C 4,0 km/h (1 Bft) 0,00 %
05.12.2014 12:45 3,7 C 78 % 1017,2 hPa 0,0 l/m 0,0 km/h (0 Bft) N-NW 346 15 min 0,000 mm 0,0 UV-I 245 W/m 0,2 C 3,7 C 0,0 km/h (0 Bft) 0,00 %
05.12.2014 13:00 3,7 C 79 % 1017,1 hPa 0,0 l/m 3,2 km/h (1 Bft) O-SO 116 0 min 0,000 mm 0,0 UV-I 91 W/m 0,4 C 3,7 C 7,9 km/h (2 Bft) 0,00 %
05.12.2014 13:15 3,4 C 81 % 1017,0 hPa 0,0 l/m 4,0 km/h (1 Bft) O-SO 105 0 min 0,000 mm 0,0 UV-I 66 W/m 0,5 C 3,4 C 7,9 km/h (2 Bft) 0,00 %
05.12.2014 13:30 3,4 C 80 % 1017,0 hPa 0,0 l/m 0,0 km/h (0 Bft) O-NO 76 0 min 0,000 mm 0,0 UV-I 85 W/m 0,3 C 3,4 C 0,0 km/h (0 Bft) 0,00 %
05.12.2014 13:45 3,4 C 81 % 1017,0 hPa 0,0 l/m 0,0 km/h (0 Bft) W-SW 240 0 min 0,000 mm 0,0 UV-I 36 W/m 0,5 C 3,4 C 0,0 km/h (0 Bft) 0,00 %
05.12.2014 14:00 3,4 C 82 % 1016,9 hPa 0,0 l/m 0,0 km/h (0 Bft) SW 219 0 min 0,000 mm 0,0 UV-I 20 W/m 0,6 C 3,4 C 0,0 km/h (0 Bft) 0,00 %
05.12.2014 14:15 3,2 C 82 % 1017,0 hPa 0,0 l/m 0,0 km/h (0 Bft) NW 326 0 min 0,000 mm 0,0 UV-I 13 W/m 0,4 C 3,2 C 0,0 km/h (0 Bft) 0,00 %
05.12.2014 14:30 3,2 C 83 % 1017,1 hPa 0,0 l/m 0,0 km/h (0 Bft) S 180 0 min 0,000 mm 0,0 UV-I 0 W/m 0,6 C 3,2 C 0,0 km/h (0 Bft) 0,00 %
05.12.2014 14:45 3,1 C 83 % 1017,1 hPa 0,0 l/m 0,0 km/h (0 Bft) W-SW 254 0 min 0,000 mm 0,0 UV-I 0 W/m 0,5 C 3,1 C 0,0 km/h (0 Bft) 0,00 %
05.12.2014 15:00 3,0 C 83 % 1017,2 hPa 0,0 l/m 0,0 km/h (0 Bft) NW 314 0 min 0,000 mm 0,0 UV-I 0 W/m 0,4 C 3,0 C 0,0 km/h (0 Bft) 0,00 %
05.12.2014 15:15 3,0 C 83 % 1017,3 hPa 0,0 l/m 0,0 km/h (0 Bft) SO 143 0 min 0,000 mm 0,0 UV-I 0 W/m 0,4 C 3,0 C 0,0 km/h (0 Bft) 0,00 %
05.12.2014 15:30 3,0 C 83 % 1017,0 hPa 0,0 l/m 0,0 km/h (0 Bft) SO 137 0 min 0,000 mm 0,0 UV-I 0 W/m 0,4 C 3,0 C 0,0 km/h (0 Bft) 0,00 %
05.12.2014 15:45 3,0 C 83 % 1017,4 hPa 0,0 l/m 0,7 km/h (0 Bft) O 91 0 min 0,000 mm 0,0 UV-I 0 W/m 0,4 C 3,0 C 4,0 km/h (1 Bft) 0,00 %
05.12.2014 16:00 3,0 C 83 % 1017,4 hPa 0,0 l/m 0,0 km/h (0 Bft) S 171 0 min 0,000 mm 0,0 UV-I 0 W/m 0,4 C 3,0 C 0,0 km/h (0 Bft) 0,00 %
05.12.2014 16:15 2,9 C 83 % 1017,3 hPa 0,0 l/m 0,0 km/h (0 Bft) SO 134 0 min 0,000 mm 0,0 UV-I 0 W/m 0,3 C 2,9 C 0,0 km/h (0 Bft) 0,00 %
05.12.2014 16:30 3,0 C 83 % 1017,3 hPa 0,0 l/m 0,0 km/h (0 Bft) S 174 0 min 0,000 mm 0,0 UV-I 0 W/m 0,4 C 3,0 C 0,0 km/h (0 Bft) 0,00 %
05.12.2014 16:45 3,0 C 83 % 1017,4 hPa 0,0 l/m 0,0 km/h (0 Bft) S 173 0 min 0,000 mm 0,0 UV-I 0 W/m 0,4 C 3,0 C 0,0 km/h (0 Bft) 0,00 %
05.12.2014 17:00 2,9 C 83 % 1017,4 hPa 0,0 l/m 0,0 km/h (0 Bft) S-SW 205 0 min 0,000 mm 0,0 UV-I 0 W/m 0,3 C 2,9 C 0,0 km/h (0 Bft) 0,00 %
05.12.2014 17:15 2,9 C 83 % 1017,6 hPa 0,0 l/m 0,0 km/h (0 Bft) S 172 0 min 0,000 mm 0,0 UV-I 0 W/m 0,3 C 2,9 C 0,0 km/h (0 Bft) 0,00 %
05.12.2014 17:30 2,9 C 84 % 1017,3 hPa 0,0 l/m 0,0 km/h (0 Bft) S 175 0 min 0,000 mm 0,0 UV-I 0 W/m 0,5 C 2,9 C 0,0 km/h (0 Bft) 0,00 %
05.12.2014 17:45 2,9 C 84 % 1017,5 hPa 0,0 l/m 0,0 km/h (0 Bft) S 177 0 min 0,000 mm 0,0 UV-I 0 W/m 0,5 C 2,9 C 0,0 km/h (0 Bft) 0,00 %
05.12.2014 18:00 2,9 C 84 % 1017,5 hPa 0,0 l/m 0,0 km/h (0 Bft) S 174 0 min 0,000 mm 0,0 UV-I 0 W/m 0,5 C 2,9 C 0,0 km/h (0 Bft) 0,00 %
05.12.2014 18:15 2,9 C 84 % 1017,3 hPa 0,0 l/m 0,0 km/h (0 Bft) S-SO 148 0 min 0,000 mm 0,0 UV-I 0 W/m 0,5 C 2,9 C 0,0 km/h (0 Bft) 0,00 %
05.12.2014 18:30 2,9 C 84 % 1017,5 hPa 0,0 l/m 0,0 km/h (0 Bft) S 174 0 min 0,000 mm 0,0 UV-I 0 W/m 0,5 C 2,9 C 0,0 km/h (0 Bft) 0,00 %
05.12.2014 18:45 2,8 C 84 % 1017,6 hPa 0,0 l/m 0,0 km/h (0 Bft) S 171 0 min 0,000 mm 0,0 UV-I 0 W/m 0,4 C 2,8 C 0,0 km/h (0 Bft) 0,00 %
05.12.2014 19:00 2,8 C 84 % 1017,6 hPa 0,0 l/m 0,0 km/h (0 Bft) S 173 0 min 0,000 mm 0,0 UV-I 0 W/m 0,4 C 2,8 C 0,0 km/h (0 Bft) 0,00 %
05.12.2014 19:15 2,8 C 84 % 1017,6 hPa 0,0 l/m 0,0 km/h (0 Bft) S 173 0 min 0,000 mm 0,0 UV-I 0 W/m 0,4 C 2,8 C 0,0 km/h (0 Bft) 0,00 %
05.12.2014 19:30 2,8 C 84 % 1017,5 hPa 0,0 l/m 0,0 km/h (0 Bft) S 173 0 min 0,000 mm 0,0 UV-I 0 W/m 0,4 C 2,8 C 0,0 km/h (0 Bft) 0,00 %
05.12.2014 19:45 2,8 C 84 % 1017,6 hPa 0,0 l/m 0,0 km/h (0 Bft) S 173 0 min 0,000 mm 0,0 UV-I 0 W/m 0,4 C 2,8 C 0,0 km/h (0 Bft) 0,00 %
05.12.2014 20:00 2,8 C 84 % 1017,6 hPa 0,0 l/m 0,0 km/h (0 Bft) S-SW 192 0 min 0,000 mm 0,0 UV-I 0 W/m 0,4 C 2,8 C 0,0 km/h (0 Bft) 0,00 %
05.12.2014 20:15 2,8 C 84 % 1017,5 hPa 0,0 l/m 0,0 km/h (0 Bft) S-SW 192 0 min 0,000 mm 0,0 UV-I 0 W/m 0,4 C 2,8 C 0,0 km/h (0 Bft) 0,00 %
05.12.2014 20:30 2,8 C 85 % 1017,4 hPa 0,0 l/m 0,0 km/h (0 Bft) S 185 0 min 0,000 mm 0,0 UV-I 0 W/m 0,5 C 2,8 C 0,0 km/h (0 Bft) 0,00 %
05.12.2014 20:45 2,8 C 85 % 1017,5 hPa 0,0 l/m 0,0 km/h (0 Bft) SW 216 0 min 0,000 mm 0,0 UV-I 0 W/m 0,5 C 2,8 C 0,0 km/h (0 Bft) 0,00 %
05.12.2014 21:00 2,8 C 85 % 1017,4 hPa 0,0 l/m 0,0 km/h (0 Bft) SW 216 0 min 0,000 mm 0,0 UV-I 0 W/m 0,5 C 2,8 C 0,0 km/h (0 Bft) 0,00 %
05.12.2014 21:15 2,8 C 85 % 1017,6 hPa 0,0 l/m 0,0 km/h (0 Bft) SW 216 0 min 0,000 mm 0,0 UV-I 0 W/m 0,5 C 2,8 C 0,0 km/h (0 Bft) 0,00 %
05.12.2014 21:30 2,8 C 85 % 1017,6 hPa 0,0 l/m 0,0 km/h (0 Bft) SW 216 0 min 0,000 mm 0,0 UV-I 0 W/m 0,5 C 2,8 C 0,0 km/h (0 Bft) 0,00 %
05.12.2014 21:45 2,8 C 85 % 1017,7 hPa 0,0 l/m 0,0 km/h (0 Bft) SW 216 0 min 0,000 mm 0,0 UV-I 0 W/m 0,5 C 2,8 C 0,0 km/h (0 Bft) 0,00 %
05.12.2014 22:00 2,8 C 85 % 1017,6 hPa 0,0 l/m 0,0 km/h (0 Bft) SW 216 0 min 0,000 mm 0,0 UV-I 0 W/m 0,5 C 2,8 C 0,0 km/h (0 Bft) 0,00 %
05.12.2014 22:15 2,8 C 85 % 1017,6 hPa 0,0 l/m 0,0 km/h (0 Bft) SW 216 0 min 0,000 mm 0,0 UV-I 0 W/m 0,5 C 2,8 C 0,0 km/h (0 Bft) 0,00 %
05.12.2014 22:30 2,8 C 85 % 1018,0 hPa 0,0 l/m 0,0 km/h (0 Bft) SW 216 0 min 0,000 mm 0,0 UV-I 0 W/m 0,5 C 2,8 C 0,0 km/h (0 Bft) 0,00 %
05.12.2014 22:45 2,8 C 85 % 1018,0 hPa 0,0 l/m 0,0 km/h (0 Bft) SW 216 0 min 0,000 mm 0,0 UV-I 0 W/m 0,5 C 2,8 C 0,0 km/h (0 Bft) 0,00 %
05.12.2014 23:00 2,9 C 85 % 1018,1 hPa 0,0 l/m 0,0 km/h (0 Bft) SW 216 0 min 0,000 mm 0,0 UV-I 0 W/m 0,6 C 2,9 C 0,0 km/h (0 Bft) 0,00 %
05.12.2014 23:15 2,9 C 85 % 1018,1 hPa 0,0 l/m 0,0 km/h (0 Bft) SW 216 0 min 0,000 mm 0,0 UV-I 0 W/m 0,6 C 2,9 C 0,0 km/h (0 Bft) 0,00 %
05.12.2014 23:30 2,9 C 85 % 1018,1 hPa 0,0 l/m 0,0 km/h (0 Bft) SW 231 0 min 0,000 mm 0,0 UV-I 0 W/m 0,6 C 2,9 C 0,0 km/h (0 Bft) 0,00 %
05.12.2014 23:45 2,9 C 85 % 1018,3 hPa 0,0 l/m 0,0 km/h (0 Bft) SW 235 0 min 0,000 mm 0,0 UV-I 0 W/m 0,6 C 2,9 C 0,0 km/h (0 Bft) 0,00 %
_ Min-Zeit 18:45 12:15 00:00 - 00:00 - - - - - - 12:45 18:45 00:00 00:00
Minimum _ 2,8 C 78 % 1015,1 hPa - 0,0 km/h (0 Bft) - - - - - - 0,2 C 2,8 C 0,0 km/h (0 Bft) 0,00 %
_ Max-Zeit 11:45 20:30 23:45 00:00 13:15 - - 11:30 00:00 10:00 12:45 00:15 11:45 13:00 00:00
Maximum _ 4,2 C 85 % 1018,3 hPa 0,0 l/m 4,0 km/h
O-SO (1 Bft)
- - 15 min 0,000 mm 1,0 UV-I 245 W/m 1,3 C 4,2 C 7,9 km/h
O-SO (2 Bft)
0,00 %
Durchschnitt _ 3,3 C 83 % 1017,0 hPa #0,0 l/m 0,3 km/h (0 Bft) O - #1:15 h #0,000 mm 1,0 UV-I 114 W/m 0,7 C 3,3 C 0,8 km/h (0 Bft) 0,00 %